Regional Weather Roundup
Issued by NWS

Home | Current Version | Previous Version | Text Only | Print | Product List | Glossary Off
Versions: 1 2 3 4 5 6 7 8 9 10 11 12 13 14 15 16 17 18 19 20 21 22 23 24 25 26 27 28 29 30 31 32 33 34 35 36 37 38 39 40 41 42 43 44 45 46 47 48 49 50

000
ASUS43 KLOT 040608
RWRIL

ILLINOIS REGIONAL WEATHER ROUNDUP
NATIONAL WEATHER SERVICE CHICAGO/ROMEOVILLE IL
100 AM CDT TUE AUG 04 2015

NOTE: "FAIR" INDICATES FEW OR NO CLOUDS BELOW 12,000 FEET WITH NO
SIGNIFICANT WEATHER AND/OR OBSTRUCTIONS TO VISIBILITY.

* THESE STATIONS ARE NOT UNDER NWS QUALITY CONTROL. THEY ALSO MAY NOT
  REPORT WEATHER SUCH AS PRECIPITATION OR FOG.

ILZ001-002-007-009-015-016-024-040700-
NORTHWEST ILLINOIS

CITY           SKY/WX    TMP DP  RH WIND       PRES   REMARKS
MOLINE         CLEAR     62  56  80 SW3       29.95S
6HR MIN TEMP:  61; 6HR MAX TEMP:  79;

STERLING*      CLEAR     63  55  77 W3        29.93R
SAVANNA*       CLEAR     61  57  87 CALM      29.95R
$$

ILZ003-004-008-010-011-017-018-040700-
NORTH CENTRAL ILLINOIS

CITY           SKY/WX    TMP DP  RH WIND       PRES   REMARKS
ROCKFORD       PTCLDY    63  55  75 CALM      29.95R
6HR MIN TEMP:  62; 6HR MAX TEMP:  79;

FREEPORT*      CLEAR     59  55  84 W5        29.96S
ROCHELLE*      CLEAR     59  56  87 CALM      29.94S
DE KALB*       CLEAR     64  55  75 W6        29.94S
PERU*          CLEAR     61  55  79 W7        29.95S
$$

ILZ005-006-012>014-019>023-040700-
NORTHEAST ILLINOIS

CITY           SKY/WX    TMP DP  RH WIND       PRES   REMARKS
CHICAGO-OHARE  CLEAR     67  56  67 NW8       29.91S
6HR MIN TEMP:  67; 6HR MAX TEMP:  78;

CHICAGO-MIDWAY CLEAR     71  55  56 W7        29.91S
6HR MIN TEMP:  70; 6HR MAX TEMP:  81;

AURORA         CLEAR     59  55  87 CALM      29.94R
6HR MIN TEMP:  58; 6HR MAX TEMP:  76;

LANSING*       CLEAR     60  55  82 CALM      29.92S
JOLIET*        CLEAR     60  57  89 CALM      29.93S
WAUKEGAN       CLEAR     62  56  80 VRB3      29.91R
6HR MIN TEMP:  61; 6HR MAX TEMP:  76;

DUPAGE AIRPORT CLEAR     63  55  75 CALM      29.92S
6HR MIN TEMP:  63; 6HR MAX TEMP:  77;

KANKAKEE*      CLEAR     63  58  83 CALM      29.94S
WHEELING       CLEAR     67  53  61 NW3       29.93R
6HR MIN TEMP:  67; 6HR MAX TEMP:  79;

MORRIS*        CLEAR     62  57  84 W3        29.93S
ROMEOVILLE*    CLEAR     62  55  79 W5        29.93S
NORTHERLY ISL    N/A     72  54  53 W8          N/A
$$

LMZ740>746-040700-
SOUTHERN LAKE MICHIGAN

STATION/POSITION SKY/WX   TEMP    WIND        PRES    VSBY  WAVE
                          AIR SEA DIR/SP/G                  HT/PER
                          (F)     (DEG/KT/KT) (MB)    (MI)  (FT/S)
HARRISON CRIB              74     270/ 11/ 13   N/A
BURNHAM HARBOR             72     260/  7/  9   N/A
CALUMET HARBOR             72     240/  3/  6   N/A
BURNS HARBOR               70     200/  6/  7 1013.2S
MICHIGAN CITY              70     170/ 11/ 12   N/A
MICHIGAN CITY 6N           73 74  250/  8/ 10   N/A           1/ 4
ST. JOSEPH                 73 73  260/ 10/ 14   N/A           1/ 2
$$

ILZ025>027-034>036-040-047-049-050-058-095>099-040700-
WEST-CENTRAL ILLINOIS

CITY           SKY/WX    TMP DP  RH WIND       PRES   REMARKS
QUINCY         PTCLDY    68  63  84 NE6       29.96S
GALESBURG*     CLEAR     58  56  96 CALM      29.96F
MACOMB*        CLEAR     60  59  96 CALM      29.99S
JACKSONVILLE*  PTCLDY    69  65  89 CALM      29.95S
PITTSFIELD*    PTCLDY    72  65  80 CALM      29.97S
$$

ILZ028>032-037-038-041>044-048-051>054-059>061-040700-
CENTRAL ILLINOIS

CITY           SKY/WX    TMP DP  RH WIND       PRES   REMARKS
PONTIAC        CLEAR     64  60  88 W5        29.95F
BLOOMINGTON    CLEAR     69  58  68 NW7       29.97S
DECATUR        CLEAR     66  61  84 CALM      29.95F
PEORIA         CLEAR     68  58  70 CALM      29.96S
6HR MIN TEMP:  67; 6HR MAX TEMP:  81; 6HR PCP: TRACE;

LACON*         CLEAR     61  59  91 CALM      29.94F
LINCOLN*       CLEAR     65  60  85 CALM      29.96S
SPRINGFIELD    PTCLDY    70  62  76 N9        29.95F
6HR MIN TEMP:  68; 6HR MAX TEMP:  81;

TAYLORVILLE    CLOUDY    66  64  94 N3        29.96R
$$

ILZ033-039-045-046-055>057-062-063-040700-
EAST-CENTRAL ILLINOIS

CITY           SKY/WX    TMP DP  RH WIND       PRES   REMARKS
CHAMPAIGN      CLEAR     63  60  90 NW5       29.96S
DANVILLE*      CLEAR     58  57  97 CALM      29.93S
RANTOUL*       CLEAR     64  59  83 NW5       29.95S
MATTOON        CLEAR     67  61  81 NE6       29.94F
PARIS*         CLEAR     61  60  97 CALM      29.97R
$$

ILZ079-100>102-040700-
SOUTHWEST ILLINOIS

CITY           SKY/WX    TMP DP  RH WIND       PRES   REMARKS
ALTON          MOCLDY    70  68  93 CALM      29.95S
BELLEVILLE     MOCLDY    74  73  97 N1        29.93S
CAHOKIA*       MOCLDY    77  70  79 CALM      29.94S
SPARTA*        PTCLDY    76  71  83 CALM      29.95S
$$

ILZ064>066-069>071-074>076-080>082-084>086-088>090-092>094-040700-
SOUTH-CENTRAL ILLINOIS

CITY           SKY/WX    TMP DP  RH WIND       PRES   REMARKS
CARBONDALE     PTCLDY    75  73  93 CALM      29.93S
6HR MIN TEMP:  75; 6HR MAX TEMP:  88;

CAIRO*         CLEAR     74  74  97 CALM      29.92F
EFFINGHAM*     MOCLDY    72  62  69 N3        29.96S
MARION         CLEAR     75  75 100 CALM      29.94S
MT. VERNON     CLEAR     72  64  78 CALM      29.95S
SALEM*         PTCLDY    72  69  90 CALM      29.95S
METROPOLIS*    PTCLDY    76  76 100 CALM      29.94S
$$

ILZ067-068-072-073-078-083-087-091-040700-
SOUTHEAST ILLINOIS

CITY           SKY/WX    TMP DP  RH WIND       PRES   REMARKS
LAWRENCEVILLE  CLEAR     73  66  78 CALM      29.94S
FLORA*         PTCLDY    72  67  85 CALM      29.94F
FAIRFIELD*     CLEAR     73  69  88 CALM      29.93S
HARRISBURG*    CLEAR     74  73  97 CALM      29.94S
ROBINSON*      MOCLDY    71  66  86 CALM      29.95S
CARMI*         CLEAR     71  66  85 CALM      29.93S HAZE
$$

ABBREVIATIONS USED IN REMARKS
   TC - TEMPERATURE IN CELSIUS
  WCI - WIND CHILL INDEX
   HX - HEAT INDEX
  VSB - VISIBILITY
$$



USA.gov is the U.S. government's official web portal to all federal, state and local government web resources and services.